• In Hungary
  • List of Countries
  • For 7 days
  • Water Temperature
  • Satellite Maps
  • Weather Map
  • News
  • Weather Widgets
  • user-avatar
    Login

    Hourly Weather Nitki

    Today, 22 February, Thursday

    Time Temperature Precipitation Wind Pressure Humidity
    00:00 -8°C° 0 mm 2 mps 757 mmHg 80%
    01:00 -8°C° 0 mm 2 mps 757 mmHg 82%
    02:00 -9°C° 0 mm 2 mps 757 mmHg 84%
    03:00 -9°C° 0 mm 2 mps 757 mmHg 85%
    04:00 -9°C° 0 mm 2 mps 757 mmHg 87%
    05:00 -9°C° 0 mm 2 mps 757 mmHg 87%
    06:00 -12°C° 0 mm 3 mps 757 mmHg 88%
    07:00 -12°C° 0 mm 3 mps 757 mmHg 89%
    08:00 -10°C° 0 mm 3 mps 757 mmHg 85%
    09:00 -10°C° 0 mm 3 mps 757 mmHg 82%
    10:00 -9°C° 0 mm 3 mps 758 mmHg 78%
    11:00 -9°C° 0 mm 3 mps 757 mmHg 75%
    12:00 -8°C° 0 mm 3 mps 757 mmHg 71%
    13:00 -7°C° 0 mm 3 mps 757 mmHg 68%
    14:00 -7°C° 0 mm 3 mps 757 mmHg 68%
    15:00 -8°C° 0 mm 3 mps 757 mmHg 69%
    16:00 -8°C° 0 mm 3 mps 757 mmHg 69%
    17:00 -8°C° 0 mm 3 mps 757 mmHg 71%
    18:00 -8°C° 0 mm 3 mps 757 mmHg 73%
    19:00 -9°C° 0 mm 3 mps 757 mmHg 75%
    20:00 -9°C° 0 mm 3 mps 757 mmHg 76%
    21:00 -9°C° 0 mm 3 mps 758 mmHg 78%
    22:00 -10°C° 0 mm 3 mps 758 mmHg 79%
    23:00 -10°C° 0 mm 3 mps 758 mmHg 80%

    Tomorrow, 23 February, Friday

    Time Temperature Precipitation Wind Pressure Humidity
    00:00 -9°C° 0 mm 2 mps 758 mmHg 82%
    01:00 -10°C° 0 mm 2 mps 758 mmHg 84%
    02:00 -10°C° 0 mm 2 mps 757 mmHg 85%
    03:00 -10°C° 0 mm 2 mps 757 mmHg 86%
    04:00 -10°C° 0 mm 2 mps 757 mmHg 87%
    05:00 -12°C° 0 mm 2 mps 757 mmHg 87%
    06:00 -12°C° 0 mm 2 mps 757 mmHg 87%
    07:00 -12°C° 0 mm 2 mps 757 mmHg 87%
    08:00 -10°C° 0 mm 2 mps 757 mmHg 81%
    09:00 -10°C° 0 mm 2 mps 758 mmHg 75%
    10:00 -9°C° 0 mm 2 mps 758 mmHg 69%
    11:00 -8°C° 0 mm 2 mps 757 mmHg 64%
    12:00 -7°C° 0 mm 2 mps 757 mmHg 58%
    13:00 -7°C° 0 mm 2 mps 757 mmHg 53%
    14:00 -7°C° 0 mm 2 mps 757 mmHg 53%
    15:00 -7°C° 0 mm 2 mps 757 mmHg 53%
    16:00 -7°C° 0 mm 2 mps 756 mmHg 53%
    17:00 -7°C° 0 mm 2 mps 756 mmHg 57%
    18:00 -7°C° 0 mm 1 mps 756 mmHg 61%
    19:00 -7°C° 0 mm 1 mps 756 mmHg 65%
    20:00 -7°C° 0 mm 1 mps 756 mmHg 65%
    21:00 -7°C° 0 mm 1 mps 756 mmHg 66%
    22:00 -7°C° 0 mm 1 mps 756 mmHg 67%
    23:00 -7°C° 0.2 mm 1 mps 755 mmHg 71%

    Day after tomorrow, 24 February, Saturday

    Time Temperature Precipitation Wind Pressure Humidity
    00:00 -7°C° 0.2 mm 1 mps 755 mmHg 76%
    01:00 -8°C° 0.2 mm 2 mps 755 mmHg 81%
    02:00 -8°C° 0.1 mm 2 mps 755 mmHg 82%
    03:00 -10°C° 0.1 mm 3 mps 755 mmHg 84%
    04:00 -10°C° 0.1 mm 3 mps 755 mmHg 86%
    05:00 -11°C° 0.1 mm 4 mps 756 mmHg 84%
    06:00 -12°C° 0.1 mm 4 mps 756 mmHg 83%
    07:00 -13°C° 0.1 mm 5 mps 757 mmHg 81%
    08:00 -13°C° 0 mm 5 mps 758 mmHg 76%
    09:00 -13°C° 0 mm 5 mps 758 mmHg 71%
    10:00 -13°C° 0 mm 5 mps 759 mmHg 65%
    11:00 -12°C° 0 mm 5 mps 759 mmHg 64%
    12:00 -11°C° 0 mm 5 mps 759 mmHg 62%
    13:00 -11°C° 0 mm 5 mps 759 mmHg 61%
    14:00 -11°C° 0 mm 5 mps 760 mmHg 63%
    15:00 -11°C° 0 mm 5 mps 760 mmHg 66%
    16:00 -11°C° 0 mm 5 mps 760 mmHg 68%
    17:00 -12°C° 0 mm 5 mps 760 mmHg 70%
    18:00 -12°C° 0 mm 5 mps 760 mmHg 72%
    19:00 -13°C° 0 mm 5 mps 761 mmHg 74%
    20:00 -13°C° 0 mm 5 mps 761 mmHg 76%
    21:00 -14°C° 0 mm 4 mps 761 mmHg 77%
    22:00 -14°C° 0 mm 4 mps 761 mmHg 78%
    23:00 -15°C° 0 mm 4 mps 761 mmHg 80%

    25 February, Sunday

    Time Temperature Precipitation Wind Pressure Humidity
    00:00 -14°C° 0 mm 3 mps 762 mmHg 81%
    01:00 -14°C° 0 mm 3 mps 762 mmHg 82%
    02:00 -15°C° 0 mm 3 mps 762 mmHg 84%
    03:00 -15°C° 0 mm 3 mps 761 mmHg 85%
    04:00 -15°C° 0 mm 3 mps 761 mmHg 86%
    05:00 -16°C° 0 mm 3 mps 761 mmHg 87%
    06:00 -16°C° 0 mm 3 mps 761 mmHg 87%
    07:00 -16°C° 0 mm 3 mps 762 mmHg 87%
    08:00 -15°C° 0 mm 3 mps 762 mmHg 83%
    09:00 -15°C° 0 mm 3 mps 762 mmHg 78%
    10:00 -14°C° 0 mm 3 mps 762 mmHg 73%
    11:00 -13°C° 0 mm 3 mps 761 mmHg 70%
    12:00 -13°C° 0 mm 3 mps 761 mmHg 66%
    13:00 -12°C° 0 mm 3 mps 761 mmHg 63%
    14:00 -12°C° 0 mm 3 mps 761 mmHg 64%
    15:00 -12°C° 0 mm 3 mps 760 mmHg 66%
    16:00 -12°C° 0 mm 3 mps 760 mmHg 67%
    17:00 -13°C° 0 mm 3 mps 760 mmHg 70%
    18:00 -14°C° 0 mm 3 mps 760 mmHg 74%
    19:00 -14°C° 0 mm 3 mps 760 mmHg 77%
    20:00 -15°C° 0 mm 3 mps 760 mmHg 78%
    21:00 -15°C° 0 mm 3 mps 761 mmHg 80%
    22:00 -15°C° 0 mm 3 mps 761 mmHg 81%
    23:00 -16°C° 0 mm 3 mps 761 mmHg 82%

    26 February, Monday

    Time Temperature Precipitation Wind Pressure Humidity
    00:00 -15°C° 0 mm 2 mps 760 mmHg 83%
    01:00 -15°C° 0 mm 2 mps 760 mmHg 85%
    02:00 -16°C° 0 mm 2 mps 760 mmHg 85%
    03:00 -16°C° 0 mm 2 mps 760 mmHg 86%
    04:00 -16°C° 0 mm 2 mps 759 mmHg 87%
    05:00 -16°C° 0 mm 2 mps 759 mmHg 87%
    06:00 -16°C° 0 mm 2 mps 759 mmHg 87%
    07:00 -16°C° 0 mm 2 mps 759 mmHg 87%
    08:00 -16°C° 0 mm 2 mps 759 mmHg 80%
    09:00 -15°C° 0 mm 2 mps 759 mmHg 74%
    10:00 -14°C° 0 mm 2 mps 758 mmHg 68%
    11:00 -13°C° 0 mm 2 mps 758 mmHg 65%
    12:00 -12°C° 0 mm 2 mps 758 mmHg 62%
    13:00 -10°C° 0 mm 2 mps 757 mmHg 58%
    14:00 -10°C° 0 mm 2 mps 757 mmHg 60%
    15:00 -10°C° 0 mm 2 mps 757 mmHg 62%
    16:00 -10°C° 0 mm 2 mps 756 mmHg 63%
    17:00 -10°C° 0 mm 2 mps 756 mmHg 68%
    18:00 -12°C° 0 mm 2 mps 756 mmHg 72%
    19:00 -12°C° 0 mm 2 mps 756 mmHg 77%
    20:00 -13°C° 0 mm 2 mps 756 mmHg 79%
    21:00 -11°C° 0 mm 1 mps 756 mmHg 81%
    22:00 -11°C° 0 mm 1 mps 756 mmHg 83%
    23:00 -11°C° 0 mm 1 mps 755 mmHg 84%

    27 February, Tuesday

    Time Temperature Precipitation Wind Pressure Humidity
    00:00 -12°C° 0 mm 1 mps 755 mmHg 85%
    01:00 -12°C° 0 mm 1 mps 755 mmHg 87%
    02:00 -12°C° 0 mm 1 mps 755 mmHg 87%
    03:00 -14°C° 0 mm 2 mps 755 mmHg 88%
    04:00 -15°C° 0 mm 2 mps 754 mmHg 88%
    05:00 -15°C° 0 mm 2 mps 754 mmHg 88%
    06:00 -15°C° 0 mm 2 mps 754 mmHg 88%
    07:00 -16°C° 0 mm 3 mps 754 mmHg 87%
    08:00 -15°C° 0 mm 3 mps 755 mmHg 81%
    09:00 -15°C° 0 mm 3 mps 755 mmHg 74%
    10:00 -15°C° 0 mm 4 mps 755 mmHg 68%
    11:00 -14°C° 0 mm 4 mps 755 mmHg 65%
    12:00 -14°C° 0 mm 4 mps 755 mmHg 63%
    13:00 -13°C° 0 mm 5 mps 755 mmHg 60%
    14:00 -13°C° 0 mm 5 mps 755 mmHg 62%
    15:00 -13°C° 0 mm 5 mps 755 mmHg 63%
    16:00 -13°C° 0 mm 5 mps 755 mmHg 65%
    17:00 -14°C° 0 mm 5 mps 755 mmHg 68%
    18:00 -15°C° 0 mm 6 mps 755 mmHg 72%
    19:00 -16°C° 0 mm 6 mps 756 mmHg 75%
    20:00 -16°C° 0 mm 6 mps 756 mmHg 76%
    21:00 -17°C° 0 mm 6 mps 756 mmHg 77%
    22:00 -17°C° 0 mm 6 mps 756 mmHg 78%
    23:00 -17°C° 0 mm 6 mps 756 mmHg 78%
    Show more